Location: Lafig�re
(44.4503°N, 4.0357°E)
Time: 15:18:53
(UTC+00:00)

Transit 2A Rocket - Pass Details

Date: 29 January 2021
Orbit: 594 x 908 km, 66.7° (Epoch: 06 March)

Event Time Altitude Azimuth Distance (km) Brightness Sun altitude
Rises 09:05:43 0° 160° (SSE) 3,347 9.6 16.5°
Reaches altitude 10° 09:09:24 10° 137° (SE) 2,352 10.3 16.9°
Maximum altitude 09:12:06 14° 106° (ESE) 2,030 8.4 17.3°
Drops below altitude 10° 09:14:42 10° 76° (ENE) 2,252 7.9 17.6°
Sets 09:18:04 0° 51° (NE) 3,107 8.2 18.0°
